Tracking 22842 objects as of 15-Apr-2021
HD Live streaming from Space Station
objects crossing your sky now

EXPLORER 29 (GEOS 1)

Track EXPLORER 29 (GEOS 1) now!
10-day predictions
EXPLORER 29 (GEOS 1) is classified as:


NORAD ID: 1726
Int'l Code: 1965-089A
Perigee: 1,119.7 km
Apogee: 2,282.7 km
Inclination: 59.4 °
Period: 120.3 minutes
Semi major axis: 8072 km
RCS: 1.3858 m2 (large)
Launch date: November 6, 1965
Source: United States (US)
Launch site: AIR FORCE EASTERN TEST RANGE (AFETR)
aabbcc
Your satellite tracking list
Your tracking list is empty




NASA's NSSDC Master Catalog

Two Line Element Set (TLE):
1 01726U 65089A   21104.35904309 -.00000067  00000-0  58141-4 0  9992
2 01726  59.3800 317.1887 0720387  65.4991  98.8075 11.97053379423404
Source of the keplerian elements: AFSPC